Find STARLINK-37941

NORAD ID: 799501018 Int'l Des: 2026-143U Constellation: starlink operational

現在のビュー

3D地球を読み込み中...

About STARLINK-37941

STARLINK-37941 (NORAD 799501018) is a starlink constellation satellite launched Jun 15, 2026

STARLINK-37941について

説明を読み込み中...

次回通過

Passes for default location (London). Set your location on the main map for personalized predictions.

高度履歴

Loading altitude history...

軌道要素

1 99999C 2026143U 26173.15118056 .00599450 00000-0 896870-4 0 1737
2 99999 97.2816 216.0094 0011270 273.6987 332.4676 16.04322981 13
Epoch: Jun 22, 2026 • Age: 4 hours